Regional Weather Roundup
Issued by NWS

Home | Current Version | Previous Version | Text Only | Print | Product List | Glossary On
Versions: 1 2 3 4 5 6 7 8 9 10 11 12 13 14 15 16 17 18 19 20 21 22 23 24 25 26 27 28 29 30 31 32 33 34 35 36 37 38 39 40 41 42 43 44 45 46 47 48 49 50
000
ASUS43 KOAX 100810
RWRNE

WEATHER ROUNDUP FOR NEBRASKA
NATIONAL WEATHER SERVICE OMAHA NE
300 AM CDT THU JUL 10 2014

NOTES: SATELLITE DATA IS BEING USED TO AUGMENT CLOUD COVER ABOVE
       12000 FEET.
       "FAIR" INDICATES FEW OR NO CLOUDS BELOW 12,000 FEET WITH NO
       SIGNIFICANT WEATHER AND/OR OBSTRUCTIONS TO VISIBILITY.

  * THESE STATIONS DO NOT REPORT WEATHER SUCH AS RAIN...SNOW OR FOG.

NEZ001>004-019>022-054>056-100900-
NEBRASKA PANHANDLE

CITY           SKY/WX    TMP DP  RH WIND       PRES   REMARKS
SCOTTSBLUFF    CLEAR     63  61  93 NE7       29.94F
ALLIANCE       PTCLDY    59  58  96 E5        29.94F
CHADRON        PTCLDY    63  59  87 E3        29.92F
KIMBALL        CLEAR     59  52  75 W5        29.97F
SIDNEY         CLEAR     60  51  72 SW9       29.96F
$$

NEZ057>060-069>072-079>082-100900-
SOUTHWEST NEBRASKA

CITY           SKY/WX    TMP DP  RH WIND       PRES   REMARKS
NORTH PLATTE   PTCLDY    66  59  78 E21G30    29.99R
IMPERIAL       CLEAR     66  61  84 SE17G29   29.97S
LEXINGTON      CLOUDY    65  63  91 S28G33    29.99S
MCCOOK         MOCLDY    64  63  96 E15       29.99F
OGALLALA       CLEAR     66  59  77 SE13G18   29.95F
$$

NEZ005>010-023>029-035>040-094-100900-
NORTH CENTRAL NEBRASKA

CITY           SKY/WX    TMP DP  RH WIND       PRES   REMARKS
VALENTINE      MOCLDY    59  59 100 NE7       29.95F FOG
AINSWORTH      CLOUDY    64  61  92 SE9       29.96F
BROKEN BOW     CLOUDY    64  62  93 N3        29.98R
O`NEILL        MOCLDY    63  59  87 E7        29.97F
ORD            MOCLDY    62  60  93 E5        29.95S
THEDFORD       CLOUDY    70  60  70 S15G22    29.97R
$$

NEZ041-046>049-061>064-073>077-083>087-100900-
SOUTH CENTRAL NEBRASKA

CITY           SKY/WX    TMP DP  RH WIND       PRES   REMARKS
GRAND ISLAND   CLOUDY    65  62  90 S15       29.96S
AURORA         CLOUDY    66  64  93 S8        29.97S
HASTINGS       CLOUDY    66  60  81 S8        29.98R
HEBRON         CLOUDY    68  64  86 S7        29.97F
HOLDREGE       TSTM      66  62  88 S32G47    30.05R
KEARNEY *      CLOUDY    66  61  82 S22G38    29.94R
YORK           CLOUDY    63  63 100 E7        29.97F
$$

NEZ011>018-030>034-042>045-100900-
NORTHEAST NEBRASKA

CITY           SKY/WX    TMP DP  RH WIND       PRES   REMARKS
NORFOLK        CLEAR     63  60  90 S9        29.98F
ALBION         CLEAR     61  60  96 E7        29.98F
BLAIR          PTCLDY    65  60  82 CALM      30.00F
FREMONT        PTCLDY    67  62  83 S5        30.01S
TEKAMAH        CLEAR     61  59  93 SE5       30.00F
WAYNE          PTCLDY    60  58  95 CALM      29.99F
$$

NEZ050>053-065>068-078-088>093-100900-
SOUTHEAST NEBRASKA

CITY           SKY/WX    TMP DP  RH WIND       PRES   REMARKS
LINCOLN        MOCLDY    67  62  84 SE5       29.99F
OMAHA EPPLEY   PTCLDY    68  61  78 SE8       30.00F
BEATRICE       CLOUDY    64  62  93 SE6       29.97F
FALLS CITY     CLOUDY    67  63  87 SE5       30.01F
NEBRASKA CITY  CLOUDY    64  64 100 S5        30.00F
PLATTSMOUTH    MOCLDY    65  61  87 S6        30.01F
$$

NEZ044-045-051>053-067-100900-
OMAHA AREA

CITY           SKY/WX    TMP DP  RH WIND       PRES   REMARKS
OMAHA EPPLEY   PTCLDY    68  61  78 SE8       30.00F
BLAIR          PTCLDY    65  60  82 CALM      30.00F
FREMONT        PTCLDY    67  62  83 S5        30.01S
MILLARD        PTCLDY    68  61  79 S3        29.99F
OFFUTT AFB     PTCLDY    66  66  99 E5        30.00F
PLATTSMOUTH    MOCLDY    65  61  87 S6        30.01F
WAHOO          FAIR      64  61  90 SE3       30.00S
$$


USA.gov is the U.S. government's official web portal to all federal, state and local government web resources and services.